EHI
2 6 11 14 14 12 12 12 12 12 10 7 5 3 1 1 2 2 2 2 2 2 1 0 0 1 1 1 0 1 1 0 0 0 0 0 0 0 0 0 0 0 0
3 5 10 14 13 11 11 12 12 11 9 7 5 3 1 0 1 1 1 1 1 1 0 0 0 0 0 0 0 1 2 1 0 0 0 0 0 0 0 0 0 0 0
2 4 8 12 12 10 10 11 11 9 7 6 5 3 1 0 0 0 0 0 0 0 0 0 0 0 0 0 0 1 1 1 0 0 0 0 0 0 0 0 0 0 0
2 3 6 11 12 10 10 11 10 7 4 3 4 3 1 0 0 0 0 0 0 0 0 0 0 0 0 0 0 0 0 0 0 0 0 0 0 0 0 0 0 0 0
2 4 8 12 11 9 10 12 10 6 2 1 2 2 1 0 0 0 0 0 0 1 1 0 0 0 0 0 0 0 0 0 0 0 0 0 0 0 0 0 0 0 0
2 5 10 13 10 7 8 11 11 6 2 1 1 2 1 0 0 1 1 1 1 1 0 0 0 0 0 0 1 1 1 1 0 0 0 0 0 0 0 0 0 0 0
3 4 8 11 10 8 9 10 10 6 2 0 0 1 1 0 0 1 1 0 0 0 0 0 0 0 0 0 1 2 2 2 1 0 0 0 0 0 0 0 0 0 0
2 2 5 8 9 10 10 10 9 5 1 0 0 0 0 0 0 1 1 0 0 0 0 0 0 0 0 0 1 2 2 2 1 0 0 0 0 0 0 0 0 0 0
1 1 3 4 6 8 10 10 7 3 1 0 0 0 0 0 0 0 1 0 0 0 0 0 0 0 0 0 0 1 1 1 0 0 0 0 0 0 0 0 0 0 0
0 1 1 1 2 4 6 7 5 3 2 1 0 0 0 0 0 0 0 0 0 0 0 0 0 0 0 0 0 0 0 0 0 0 0 0 0 0 0 0 0 0 0
0 0 0 0 0 1 3 3 2 1 1 1 0 0 0 0 0 0 0 0 0 0 0 0 0 0 0 0 0 0 0 0 0 0 0 0 0 0 0 0 0 0 0
0 0 0 0 0 1 1 1 1 0 0 0 0 0 0 0 0 0 0 0 0 0 0 0 0 0 0 0 0 0 0 0 0 0 0 0 0 0 0 0 0 0 0
0 0 0 0 0 0 1 2 2 1 0 1 1 0 0 0 0 0 0 0 0 0 0 0 0 0 0 0 0 0 0 0 0 0 0 0 0 1 1 2 1 0 0
0 0 0 0 0 0 2 3 2 1 1 2 2 1 0 0 0 0 0 0 0 0 0 0 0 0 0 0 0 0 0 0 0 0 0 0 0 1 2 3 2 1 0
0 0 0 0 0 0 2 3 2 1 1 2 3 2 0 0 0 0 0 0 0 0 0 0 0 0 0 0 0 0 0 0 0 0 0 0 0 1 3 3 3 2 1
0 0 0 0 0 1 2 3 2 1 1 2 2 1 0 0 0 0 0 0 0 0 0 0 0 0 0 0 0 0 0 0 0 0 0 0 0 1 2 2 2 2 1
0 0 0 0 0 1 2 3 3 1 1 1 1 0 0 0 0 0 0 0 0 0 0 0 0 0 0 0 0 0 0 0 0 0 0 0 0 0 1 1 1 1 0
0 0 0 0 0 0 1 2 3 2 0 0 0 0 0 0 0 0 0 0 0 0 0 0 0 0 0 0 0 0 0 0 0 0 0 0 0 0 0 0 0 0 0
0 0 0 0 0 0 0 1 2 1 0 0 0 0 0 0 0 0 0 0 0 0 0 0 0 0 0 0 0 0 0 0 0 0 0 0 0 0 0 0 0 0 0
0 0 0 0 0 0 0 0 0 0 1 1 1 0 0 0 0 0 0 0 0 0 0 0 0 0 0 0 0 0 0 0 0 0 0 0 0 0 0 0 0 0 0
0 0 0 1 1 0 0 0 0 1 2 2 1 0 0 0 0 0 0 0 0 0 0 0 0 0 0 0 0 0 0 0 0 0 0 0 0 0 0 0 0 0 0
0 0 1 2 2 1 0 0 0 1 2 3 2 0 0 0 0 0 0 0 0 0 0 0 0 0 0 0 0 0 0 0 0 0 0 0 0 0 0 0 0 0 0
0 0 1 2 2 1 0 0 0 1 3 3 2 0 0 0 0 0 0 0 0 0 0 0 0 0 0 0 0 0 0 0 0 0 0 0 0 0 0 0 0 0 0
0 0 0 1 1 0 0 0 0 1 2 2 1 0 0 0 0 0 0 0 0 0 0 0 0 0 0 0 0 0 0 0 0 0 0 0 0 0 0 0 0 0 0
0 0 0 0 0 0 0 0 0 1 1 1 0 0 0 0 0 0 0 0 0 0 0 0 0 0 0 0 0 0 0 0 0 0 0 0 0 0 0 0 0 0 0
0 0 0 0 0 0 0 0 0 0 0 0 0 0 0 0 0 0 0 0 0 0 0 0 0 0 0 0 0 0 0 0 0 0 0 0 0 0 0 0 0 0 0
Wind_Speed
4 9 11 9 8 8 8 7 6 6 7 7 7 7 6 6 6 7 7 7 6 6 6 6 7 7 7 7 7 8 9 9 10 10 10 9 9 9 8 8 7 6 10
6 10 11 9 8 8 7 7 6 6 6 6 6 6 6 6 6 6 6 6 6 6 6 6 6 6 6 7 7 8 9 9 9 8 8 7 8 8 8 8 8 6 9
7 10 9 9 8 7 7 7 6 6 5 6 6 6 6 6 6 5 6 6 6 5 5 6 6 6 6 6 7 7 8 8 7 6 5 3 5 8 9 8 8 9 8
7 9 9 9 8 7 7 6 6 6 5 5 5 6 6 6 6 6 6 6 5 5 5 5 5 5 5 6 6 6 6 6 5 3 2 3 4 9 8 8 7 7 7
5 7 10 10 8 7 6 6 6 6 5 5 5 5 5 5 5 5 6 6 5 5 5 5 5 5 5 5 5 5 5 4 3 2 1 2 3 8 8 7 6 6 6
4 6 10 11 9 7 6 6 6 6 6 5 5 5 5 5 5 5 5 5 5 5 5 5 5 5 5 5 5 5 5 4 3 2 2 2 3 7 8 7 6 5 5
4 5 8 10 9 8 7 6 6 6 6 6 5 5 5 5 5 5 5 5 5 5 5 5 5 5 5 5 5 5 5 4 3 2 1 2 4 8 7 6 6 5 5
3 4 6 9 9 8 7 7 6 6 6 6 6 6 6 6 6 6 6 6 6 6 5 5 5 5 5 5 6 6 5 5 4 3 2 3 7 8 8 7 6 6 5
3 3 4 6 6 7 7 7 6 6 7 7 7 7 6 6 7 7 6 7 7 7 6 6 6 6 6 6 7 7 5 6 4 2 3 3 8 9 8 8 7 6 6
1 2 3 4 5 5 6 7 7 6 7 7 7 7 7 7 7 7 7 7 8 8 7 7 7 7 7 7 8 7 6 5 4 3 2 5 9 10 9 9 8 7 7
0 1 2 3 3 4 5 6 7 6 6 6 6 7 7 5 5 6 8 8 9 9 8 8 8 7 6 6 8 8 6 4 4 3 3 7 10 10 10 10 9 9 8
2 2 2 2 2 2 3 4 4 5 5 5 4 5 5 4 4 5 6 9 9 9 8 8 8 7 5 3 5 7 4 5 5 3 4 10 11 11 11 11 11 10 10
2 2 2 2 2 2 2 2 2 2 3 5 5 5 4 4 3 3 2 4 5 6 5 5 6 4 4 4 4 4 5 5 3 3 5 10 12 12 13 13 12 12 12
2 2 2 2 2 2 2 2 2 2 2 3 4 5 4 3 3 3 3 3 3 3 4 4 3 5 5 5 5 6 6 4 3 3 5 11 12 13 14 14 14 14 13
1 2 2 3 3 3 2 2 2 3 3 3 3 4 4 3 3 3 3 3 3 3 4 4 4 5 5 5 5 6 6 6 5 4 4 10 12 13 14 14 14 14 14
2 2 2 2 2 3 3 2 2 2 3 3 2 3 4 3 3 3 3 3 3 3 4 4 5 4 4 4 5 5 5 5 5 5 4 7 12 13 14 15 16 16 15
2 2 2 3 2 2 3 3 2 2 2 2 3 3 3 3 3 3 3 3 3 3 4 3 4 3 3 4 4 5 4 5 5 5 5 5 6 11 14 16 16 16 16
1 1 2 1 2 2 2 2 2 2 2 2 3 3 4 4 4 4 3 4 3 3 3 3 3 3 3 3 4 4 4 4 6 6 5 5 5 6 10 15 16 17 17
1 1 2 2 2 2 2 2 2 2 2 2 2 3 4 4 4 4 3 3 3 3 3 3 3 3 4 4 4 4 4 5 5 5 6 6 6 6 6 11 15 16 17
1 1 1 2 2 2 1 1 1 1 2 2 2 3 4 4 4 3 3 3 3 3 3 3 4 4 4 4 4 5 5 5 5 6 7 6 6 7 6 7 7 10 15
1 1 1 2 2 2 1 1 2 2 2 2 2 3 4 4 4 4 3 3 3 3 4 4 4 5 4 3 3 4 5 6 7 6 6 5 6 7 7 7 6 6 7
1 1 1 1 2 2 2 2 2 2 2 2 2 2 3 4 4 4 4 4 4 4 5 5 4 4 4 4 3 2 3 4 5 7 6 6 7 6 7 8 8 7 6
0 0 1 1 1 2 3 2 1 1 1 1 2 2 2 3 4 4 4 4 4 4 5 5 5 6 5 4 4 4 3 4 3 4 6 6 6 6 6 6 8 8 8
1 1 1 1 1 1 2 2 3 2 2 2 2 2 2 3 3 3 4 4 4 4 5 5 5 5 5 5 4 5 5 3 3 3 3 5 7 7 7 7 8 8 9
2 1 1 1 1 1 2 3 3 3 3 2 1 3 3 3 3 4 3 3 4 4 5 5 5 5 5 5 5 4 5 5 5 4 5 4 5 6 6 7 6 6 8
2 1 1 2 2 1 1 1 2 3 3 2 3 3 3 2 2 3 3 3 4 4 4 5 5 6 6 6 5 5 4 5 5 5 6 5 5 5 6 6 6 6 6
Wind_Direction
105 125 139 139 140 137 136 135 132 132 133 136 139 137 135 129 122 120 119 118 117 117 117 118 118 117 114 111 109 105 103 102 101 101 101 103 105 104 102 96 89 90 94
111 124 137 137 141 143 142 137 131 130 133 136 141 142 139 136 131 130 131 129 125 123 122 123 121 121 124 120 116 111 109 108 107 106 106 108 111 110 102 94 91 100 98
106 123 139 140 142 146 147 143 137 134 137 138 142 147 147 144 142 143 141 135 133 131 128 125 125 124 121 122 122 120 118 118 121 123 123 127 124 119 112 104 101 104 103
107 123 137 141 145 148 151 150 148 144 142 143 150 153 155 158 157 157 152 146 144 137 131 129 127 131 129 129 131 130 129 132 142 154 156 149 132 126 124 116 111 110 110
100 123 136 141 151 154 156 159 160 157 153 154 159 161 167 171 172 170 162 155 153 149 145 140 139 138 136 136 139 141 144 154 176 202 195 115 115 135 134 129 124 123 119
106 114 137 146 156 162 164 165 170 168 165 168 172 173 180 183 178 174 169 164 161 159 160 157 154 152 148 149 155 162 166 183 204 214 184 133 128 143 143 140 139 142 141
100 111 138 149 158 167 172 175 174 176 177 181 183 184 186 187 185 180 176 173 172 171 172 173 169 168 169 173 176 181 186 205 215 221 176 140 143 152 156 155 157 158 160
90 108 136 154 161 171 178 181 179 184 187 191 191 191 193 194 195 197 191 186 184 184 187 188 186 187 190 194 198 201 208 223 229 225 181 151 156 164 171 177 177 177 178
85 108 135 160 166 174 183 185 185 192 195 197 199 200 200 203 206 207 205 199 197 195 198 199 200 203 207 209 210 213 221 234 246 228 197 166 170 177 184 190 193 193 194
73 135 152 170 173 178 188 192 192 195 198 201 204 205 204 206 211 212 211 207 204 204 206 207 211 213 215 217 219 220 222 232 236 230 207 177 179 187 194 200 202 202 203
194 181 168 178 182 182 184 192 193 197 200 203 206 206 204 208 209 209 209 209 205 205 210 213 218 218 218 219 222 224 220 221 226 223 204 180 187 196 202 206 209 211 214
205 213 193 184 185 185 184 176 189 197 198 202 207 203 203 209 209 209 198 202 205 207 210 214 219 218 217 215 220 220 217 217 225 214 190 182 197 206 211 213 215 219 221
198 201 203 199 189 175 174 178 188 194 197 203 206 206 202 202 201 201 180 186 195 201 206 211 212 216 216 211 210 212 218 215 216 206 187 187 201 213 219 219 220 222 224
193 197 207 203 185 181 181 185 193 193 203 205 206 208 199 192 194 189 184 184 187 194 197 199 205 215 218 214 211 216 219 219 215 201 191 193 204 218 226 227 227 227 228
191 199 205 209 191 182 191 194 195 204 210 209 202 204 203 193 192 188 192 189 195 197 193 200 214 219 220 219 217 219 220 222 219 210 192 198 203 216 228 231 232 231 231
210 211 202 215 202 182 185 196 204 209 215 214 200 201 204 196 193 189 195 203 204 201 201 205 217 219 222 222 225 226 224 225 224 218 199 202 205 209 223 233 236 237 238
226 213 199 210 202 193 199 204 204 213 214 210 206 204 210 203 197 195 198 207 211 207 205 208 219 220 227 229 232 234 233 231 230 228 213 201 203 212 221 231 237 240 241
224 215 185 202 202 203 204 211 206 208 213 212 208 202 207 211 205 201 202 207 213 213 206 207 210 220 230 230 235 239 238 234 235 233 225 211 199 205 219 229 235 239 241
224 212 179 170 195 199 208 210 211 206 217 220 215 211 206 209 211 207 204 210 209 209 214 219 215 212 230 233 236 237 235 233 233 236 234 224 214 209 207 220 227 234 238
191 198 168 160 189 192 202 218 220 226 230 228 218 221 218 209 209 210 208 213 213 211 217 219 224 220 224 228 244 246 238 234 227 228 229 229 223 219 215 215 219 230 233
160 176 185 178 191 177 182 206 215 232 237 242 235 234 231 219 209 206 216 219 217 217 220 222 227 229 232 220 239 261 257 240 234 230 224 225 228 225 220 220 215 215 226
167 167 225 203 204 188 199 209 215 221 222 223 234 239 233 227 217 218 213 215 216 218 228 229 223 229 235 210 203 236 260 258 244 233 224 225 229 224 223 225 221 218 217
129 60 299 248 232 202 194 200 226 218 220 220 239 240 241 244 228 221 222 217 219 218 226 232 222 222 233 228 206 206 223 238 258 238 227 226 228 225 224 224 223 223 221
85 43 333 266 245 226 200 196 200 211 217 228 225 238 245 241 240 227 232 231 229 227 230 237 235 228 225 232 229 226 231 231 241 264 242 230 230 230 228 229 226 223 222
71 47 348 338 291 243 223 216 213 225 229 227 224 237 244 242 240 233 226 231 235 240 239 238 242 237 229 232 228 228 242 250 243 244 259 246 239 232 229 229 226 225 223
64 29 354 347 327 304 252 243 231 233 238 243 246 242 242 241 243 243 242 236 236 237 243 246 243 241 237 238 235 227 226 231 235 237 249 249 251 247 235 232 228 228 227